sat.trackr.live / text

‹ back to catalog

STARLINK-3339

NORAD 50820 · 2022-001T

PAYLOAD ACTIVE UNKNOWN

§ Identity

Operator
Country
US
Launch date
2022-01-06
Launch site
AFETR
Launch vehicle
Mass (kg)
RCS (m²)

Purposes: comms

External: N2YO · Heavens-Above · Gunter

§ Orbital elements

Epoch: 2026-09-20T00:27:32.520096Z

Period
94.01 min
Inclination
53.1606°
Eccentricity
0.0001108
Mean motion
15.31672012 rev/d
Perigee alt
470.1 km
Apogee alt
471.6 km
Semi-major
6,849.0 km
B*
2.5224e-4
RAAN
6.1371°
Arg perigee
94.2786°
Mean anomaly
265.8342°
Rev number
25,988

§ Raw data

STARLINK-33391 50820U 22001T   26263.01912639  .00007463  00000+0  25224-3 0  99972 50820  53.1606   6.1371 0001108  94.2786 265.8342 15.31672012259882

JSON: /api/v1/satellites/50820 · /tle

For live sub-satellite position, see the globe view (requires WebGL).

§ Visibility from observer

Set your observer location to see the next 7 days of passes ≥ 10°. The values pass through the URL so the page stays shareable.

No JS? Fill the form by hand. The geolocation button needs JavaScript.